RADUGA 32 1 23448U 94087A 10072.44689412 -.00000117 00000-0 10000-3 0 2444 2 23448 10.8147 49.3258 0003236 129.4605 230.6466 1.00262133 73382 RADUGA-1 4 1 25642U 99010A 10068.58370053 .00000113 00000-0 00000-0 0 3443 2 25642 9.5108 65.2340 0003624 169.0992 191.0046 1.00212616 40380 RADUGA-1 5 1 26477U 00049A 10073.62562839 -.00000331 00000-0 10000-3 0 7856 2 26477 7.1515 63.7328 0002029 301.7011 136.4446 1.00288496 34948 RADUGA-1 7 1 28194U 04010A 10073.00288468 -.00000309 00000-0 10000-3 0 2020 2 28194 4.4892 79.9610 0006074 54.3058 135.9189 1.00395161 21844 RADUGA-1M 1 1 32373U 07058A 10072.93396219 -.00000045 00000-0 10000-3 0 6496 2 32373 0.0081 216.0131 0002355 173.7082 187.9305 1.00272753 9173